YO8SDE Weather Reports


time (UTC)temp
C
wind
direction
speed
KPH
gust
KPH
rain 1hr
cm
rain 24hr
cm
rain mn
cm
humidity
%
barometer
mb
20260503230021 7 183 0.0 0.0 0.00 0.00 0.00 73 1005.0
20260503225520 7 177 1.6 3.2 0.00 0.00 0.00 72 1005.0
20260503225020 7 113 0.0 0.0 0.00 0.00 0.00 72 1005.0
20260503224521 8 113 1.6 1.6 0.00 0.00 0.00 71 1005.0
20260503224020 8 167 3.2 3.2 0.00 0.00 0.00 70 1005.0
20260503223520 8 148 1.6 1.6 0.00 0.00 0.00 70 1005.0
20260503223021 8 266 3.2 3.2 0.00 0.00 0.00 70 1005.0
20260503222520 8 130 3.2 3.2 0.00 0.00 0.00 71 1005.0
20260503222020 7 155 1.6 1.6 0.00 0.00 0.00 72 1005.0
20260503221521 7 167 1.6 1.6 0.00 0.00 0.00 72 1005.0
20260503221020 7 180 3.2 3.2 0.00 0.00 0.00 71 1005.0
20260503220520 8 181 3.2 3.2 0.00 0.00 0.00 69 1005.0
20260503220020 8 121 0.0 0.0 0.00 0.00 0.00 68 1005.0
20260503215520 8 148 1.6 1.6 0.00 0.00 0.00 68 1005.0
20260503215020 8 129 0.0 1.6 0.00 0.00 0.00 67 1005.0
20260503214520 8 171 1.6 3.2 0.00 0.00 0.00 67 1005.0
20260503214021 8 172 1.6 1.6 0.00 0.00 0.00 67 1005.0
20260503213527 8 201 1.6 1.6 0.00 0.00 0.00 65 1005.0
20260503213021 8 265 3.2 3.2 0.00 0.00 0.00 64 1005.0
20260503212522 8 133 0.0 0.0 0.00 0.00 0.00 67 1005.0
20260503212020 8 152 1.6 1.6 0.00 0.00 0.00 67 1005.0
20260503211520 9 180 3.2 3.2 0.00 0.00 0.00 68 1005.0
20260503211020 9 198 3.2 3.2 0.00 0.00 0.00 67 1005.0
20260503210521 9 117 0.0 0.0 0.00 0.00 0.00 65 1005.0
20260503210022 10 153 1.6 1.6 0.00 0.00 0.00 64 1005.0
20260503205521 10 138 0.0 0.0 0.00 0.00 0.00 63 1005.0
20260503205020 10 246 3.2 3.2 0.00 0.00 0.00 62 1005.0
20260503204520 10 104 0.0 1.6 0.00 0.00 0.00 61 1005.0
20260503204020 10 153 1.6 1.6 0.00 0.00 0.00 60 1005.0
20260503203520 10 170 1.6 1.6 0.00 0.00 0.00 61 1005.0
20260503203020 10 137 0.0 1.6 0.00 0.00 0.00 57 1005.0
20260503202520 11 149 1.6 1.6 0.00 0.00 0.00 55 1005.0
20260503202020 11 124 0.0 1.6 0.00 0.00 0.00 53 1005.0
20260503201520 11 97 1.6 1.6 0.00 0.00 0.00 53 1005.0
20260503201021 11 119 0.0 0.0 0.00 0.00 0.00 53 1006.0
20260503200521 11 118 0.0 0.0 0.00 0.00 0.00 52 1006.0
20260503200020 11 111 0.0 1.6 0.00 0.00 0.00 53 1006.0
20260503195521 11 122 1.6 1.6 0.00 0.00 0.00 51 1006.0
20260503195020 11 123 1.6 1.6 0.00 0.00 0.00 50 1006.0
20260503194520 11 122 1.6 1.6 0.00 0.00 0.00 50 1006.0
20260503194022 11 117 0.0 0.0 0.00 0.00 0.00 50 1006.0
20260503193520 11 107 0.0 0.0 0.00 0.00 0.00 51 1006.0
20260503193020 11 119 0.0 0.0 0.00 0.00 0.00 49 1006.0
20260503192520 12 120 0.0 0.0 0.00 0.00 0.00 49 1006.0
20260503192020 12 122 0.0 0.0 0.00 0.00 0.00 49 1006.0
20260503191523 12 122 0.0 0.0 0.00 0.00 0.00 48 1006.0
20260503191020 12 123 0.0 0.0 0.00 0.00 0.00 48 1006.0
20260503190521 12 108 0.0 1.6 0.00 0.00 0.00 48 1006.0
20260503190020 12 104 0.0 0.0 0.00 0.00 0.00 49 1006.0
20260503185520 12 144 0.0 0.0 0.00 0.00 0.00 48 1006.0
20260503185020 12 155 1.6 1.6 0.00 0.00 0.00 47 1006.0
20260503184521 12 97 0.0 0.0 0.00 0.00 0.00 48 1006.0
20260503184021 12 160 1.6 1.6 0.00 0.00 0.00 46 1006.0
20260503183520 12 134 1.6 1.6 0.00 0.00 0.00 46 1006.0
20260503183020 12 180 3.2 3.2 0.00 0.00 0.00 47 1006.0
20260503182521 12 140 3.2 3.2 0.00 0.00 0.00 48 1006.0
20260503182020 12 120 0.0 0.0 0.00 0.00 0.00 49 1006.0
20260503181520 12 111 0.0 0.0 0.00 0.00 0.00 45 1006.0
20260503181020 12 120 0.0 0.0 0.00 0.00 0.00 50 1006.0
20260503180032 12 141 1.6 1.6 0.00 0.00 0.00 49 1006.0
20260503175521 12 150 1.6 1.6 0.00 0.00 0.00 50 1006.0
20260503175020 13 137 0.0 1.6 0.00 0.00 0.00 48 1006.0
20260503174522 13 160 1.6 1.6 0.00 0.00 0.00 46 1006.0
20260503174020 13 124 0.0 0.0 0.00 0.00 0.00 43 1006.0
20260503173520 13 119 0.0 0.0 0.00 0.00 0.00 43 1006.0
20260503173020 14 133 1.6 1.6 0.00 0.00 0.00 42 1006.0
20260503172520 14 121 1.6 3.2 0.00 0.00 0.00 42 1006.0
20260503172020 14 143 0.0 0.0 0.00 0.00 0.00 41 1006.0
20260503171521 14 269 1.6 3.2 0.00 0.00 0.00 40 1006.0
20260503171021 15 122 0.0 0.0 0.00 0.00 0.00 39 1006.0
20260503170521 15 222 1.6 1.6 0.00 0.00 0.00 39 1006.0
20260503150521 17 275 3.2 3.2 0.00 0.00 0.00 29 1006.0
20260503131020 19 46 1.6 1.6 0.00 0.00 0.00 25 1008.0
20260503130520 19 90 0.0 4.8 0.00 0.00 0.00 24 1008.0
20260503110521 19 165 3.2 3.2 0.00 0.00 0.00 26 1009.0
20260503081520 16 195 4.8 9.7 0.00 0.00 0.00 30 1011.0
20260503081020 17 140 3.2 4.8 0.00 0.00 0.00 28 1011.0
20260503080520 16 254 4.8 4.8 0.00 0.00 0.00 28 1011.0
20260503072521 15 205 9.7 9.7 0.00 0.00 0.00 30 1011.0
20260503072021 15 185 6.4 9.7 0.00 0.00 0.00 31 1011.0
20260503071521 15 282 1.6 1.6 0.00 0.00 0.00 30 1011.0
20260503071020 15 289 6.4 8.0 0.00 0.00 0.00 35 1011.0
20260503070520 15 155 4.8 4.8 0.00 0.00 0.00 32 1011.0
20260503055020 11 155 1.6 3.2 0.00 0.00 0.00 56 1011.0
20260503054520 11 132 1.6 1.6 0.00 0.00 0.00 54 1011.0
20260503054020 10 130 1.6 1.6 0.00 0.00 0.00 58 1011.0
20260503053520 10 134 1.6 1.6 0.00 0.00 0.00 57 1011.0
20260503053020 10 113 0.0 0.0 0.00 0.00 0.00 59 1011.0
20260503052520 9 139 1.6 1.6 0.00 0.00 0.00 59 1011.0
20260503052020 8 114 1.6 1.6 0.00 0.00 0.00 62 1011.0
20260503051520 7 13 1.6 1.6 0.00 0.00 0.00 61 1011.0
20260503051021 7 134 1.6 1.6 0.00 0.00 0.00 63 1011.0
20260503050520 7 136 1.6 1.6 0.00 0.00 0.00 64 1011.0
20260503050020 6 173 1.6 1.6 0.00 0.00 0.00 65 1011.0
20260503045522 6 165 1.6 1.6 0.00 0.00 0.00 66 1011.0
20260503045020 6 160 1.6 1.6 0.00 0.00 0.00 66 1011.0
20260503044521 5 149 1.6 1.6 0.00 0.00 0.00 69 1011.0
20260503044021 5 150 3.2 3.2 0.00 0.00 0.00 71 1011.0
20260503043521 4 141 1.6 1.6 0.00 0.00 0.00 72 1011.0
20260503043020 4 137 1.6 1.6 0.00 0.00 0.00 72 1011.0
20260503042520 4 161 3.2 3.2 0.00 0.00 0.00 72 1011.0
20260503042020 4 123 0.0 0.0 0.00 0.00 0.00 74 1011.0
20260503041520 3 141 1.6 1.6 0.00 0.00 0.00 75 1011.0
20260503041020 3 155 1.6 1.6 0.00 0.00 0.00 76 1011.0
20260503040038 3 142 1.6 1.6 0.00 0.00 0.00 78 1011.0
20260503035521 3 159 1.6 1.6 0.00 0.00 0.00 78 1011.0
20260503035020 3 126 0.0 0.0 0.00 0.00 0.00 79 1011.0
20260503034521 2 131 0.0 0.0 0.00 0.00 0.00 80 1011.0
20260503034020 2 140 0.0 0.0 0.00 0.00 0.00 81 1011.0
20260503033520 2 120 0.0 0.0 0.00 0.00 0.00 82 1011.0
20260503033020 2 115 0.0 0.0 0.00 0.00 0.00 84 1011.0
20260503032520 2 130 0.0 0.0 0.00 0.00 0.00 85 1011.0
20260503032020 1 121 0.0 0.0 0.00 0.00 0.00 86 1011.0
20260503031521 1 119 0.0 0.0 0.00 0.00 0.00 87 1011.0
20260503031021 1 120 0.0 0.0 0.00 0.00 0.00 87 1011.0
20260503030520 1 174 3.2 3.2 0.00 0.00 0.00 87 1011.0
20260503030020 1 163 1.6 1.6 0.00 0.00 0.00 88 1010.0
20260503025520 1 152 1.6 1.6 0.00 0.00 0.00 88 1010.0
20260503025020 1 165 1.6 1.6 0.00 0.00 0.00 88 1010.0
20260503024520 1 158 3.2 3.2 0.00 0.00 0.00 88 1010.0
20260503024020 1 157 1.6 1.6 0.00 0.00 0.00 88 1010.0
20260503023520 1 148 1.6 3.2 0.00 0.00 0.00 88 1010.0
20260503023021 1 178 3.2 3.2 0.00 0.00 0.00 88 1010.0
20260503022520 1 152 1.6 1.6 0.00 0.00 0.00 88 1010.0
20260503022020 0 169 1.6 1.6 0.00 0.00 0.00 87 1010.0
20260503021521 1 176 3.2 3.2 0.00 0.00 0.00 87 1010.0
20260503021020 1 173 3.2 4.8 0.00 0.00 0.00 87 1010.0
20260503020521 1 159 1.6 1.6 0.00 0.00 0.00 86 1010.0
20260503020021 1 161 1.6 1.6 0.00 0.00 0.00 86 1010.0
20260503015520 1 270 1.6 1.6 0.00 0.00 0.00 87 1010.0
20260503015020 1 160 1.6 1.6 0.00 0.00 0.00 86 1010.0
20260503014520 1 184 3.2 3.2 0.00 0.00 0.00 84 1010.0
20260503014020 2 145 1.6 1.6 0.00 0.00 0.00 83 1010.0
20260503013520 2 263 3.2 3.2 0.00 0.00 0.00 84 1010.0
20260503013020 2 180 1.6 1.6 0.00 0.00 0.00 84 1010.0
20260503012520 2 96 3.2 3.2 0.00 0.00 0.00 84 1010.0
20260503012020 1 149 1.6 1.6 0.00 0.00 0.00 84 1010.0
20260503011521 2 173 3.2 3.2 0.00 0.00 0.00 84 1010.0
20260503011020 2 146 1.6 1.6 0.00 0.00 0.00 83 1010.0
20260503010521 2 169 1.6 3.2 0.00 0.00 0.00 83 1010.0
20260503010020 2 162 3.2 3.2 0.00 0.00 0.00 83 1010.0
20260503005520 2 179 1.6 3.2 0.00 0.00 0.00 83 1010.0
20260503005020 2 181 3.2 3.2 0.00 0.00 0.00 82 1010.0
20260503004522 2 156 1.6 1.6 0.00 0.00 0.00 82 1010.0
20260503004020 2 132 0.0 0.0 0.00 0.00 0.00 82 1010.0
20260503003520 2 130 1.6 1.6 0.00 0.00 0.00 82 1011.0
20260503003020 2 167 1.6 3.2 0.00 0.00 0.00 81 1011.0
20260503002520 2 152 1.6 1.6 0.00 0.00 0.00 81 1011.0
20260503002020 2 222 1.6 1.6 0.00 0.00 0.00 81 1010.0
20260503001520 2 198 3.2 3.2 0.00 0.00 0.00 81 1010.0
20260503001021 2 174 3.2 3.2 0.00 0.00 0.00 81 1011.0
20260503000520 2 124 0.0 1.6 0.00 0.00 0.00 81 1011.0
20260503000020 2 130 1.6 1.6 0.00 0.00 0.00 81 1011.0
20260502235520 2 157 1.6 1.6 0.00 0.00 0.00 80 1011.0
20260502235020 2 125 0.0 1.6 0.00 0.00 0.00 81 1011.0
20260502234520 2 155 1.6 1.6 0.00 0.00 0.00 81 1011.0
20260502234020 2 265 1.6 1.6 0.00 0.00 0.00 81 1011.0
20260502233520 2 143 1.6 1.6 0.00 0.00 0.00 81 1011.0
20260502233020 2 133 1.6 1.6 0.00 0.00 0.00 80 1011.0
20260502232520 2 142 1.6 1.6 0.00 0.00 0.00 79 1011.0
20260502232021 3 128 1.6 1.6 0.00 0.00 0.00 78 1011.0
20260502231520 3 242 1.6 3.2 0.00 0.00 0.00 78 1011.0
20260502231020 3 272 4.8 4.8 0.00 0.00 0.00 79 1011.0
20260502230520 3 11 4.8 4.8 0.00 0.00 0.00 79 1011.0